Location: Newark
(49.8348°N, 24.0280°E)
Time: 15:22:30
(UTC+00:00)

Transit 2A - Pass Details

Date: 22 January 2020
Orbit: 599 x 959 km, 66.7° (Epoch: 25 February)

Event Time Altitude Azimuth Distance (km) Brightness Sun altitude
Rises 01:23:27 0° 326° (NW) 2,896 - -45.2°
Reaches altitude 10° 01:26:23 10° 347° (NNW) 2,026 - -44.8°
Maximum altitude 01:29:25 17° 29° (NNE) 1,645 - -44.3°
Drops below altitude 10° 01:32:35 10° 71° (ENE) 2,133 - -43.9°
Exits shadow 01:33:08 - 75° (ENE) 2,282 9.1 -43.8°
Sets 01:35:47 0° 91° (E) 3,120 9.8 -43.4°
